[[{"header":{"parameterUnit":"m.s-1","parameterCategory":1,"la1":30.2991,"la2":30.254,"lo1":-89.0895,"lo2":-89.0444,"dy":0.0017,"dx":0.0017,"nx":28,"ny":28,"refTime":"2025-05-24T21:00:00:Z","depth":0,"parameterNumber":2,"parameterNumberName":"U-component_of_WINDS"},"data":[0,0,0,0,0,0,0,0,0,0,0,0,0,0,0,0,0,0,0,0,0,0,0,0,0,0,0,0,0,0,0,0,0,0,0,0,0,0,0,0,0,0,0,0,0,0,0,0,0,0,0,0,0,0,0,0,0,0,1.5997,1.5997,0,1.6044,1.6045,1.6045,1.6024,1.6023,1.6022,1.6021,1.607,1.6073,1.6075,0,0,0,0,0,0,0,0,0,0,0,0,0,1.5886,1.5889,1.5996,1.5997,1.5998,1.6044,1.6045,1.6046,1.6025,1.6023,1.6022,1.602,1.6069,1.6072,1.6075,0,0,0,0,0,0,0,0,0,0,0,0,0,1.5934,1.5889,1.5996,1.5993,1.5993,1.6044,1.6045,1.6046,1.6025,1.6023,1.6021,1.602,1.6068,1.6072,1.6076,1.6133,0,0,1.6087,1.6088,0,0,0,0,0,0,0,0,1.5932,1.5938,1.5993,1.5993,1.5993,1.6027,1.6024,1.6075,1.6025,1.6013,1.6021,1.6019,1.6057,1.6062,1.6074,1.6135,1.6138,1.6087,1.6089,1.6091,1.6092,0,0,0,0,0,0,0,1.5928,1.5936,1.6015,1.5994,1.5994,1.5989,1.5993,1.6034,1.6044,1.6014,1.6012,1.6018,1.6057,1.6071,1.6075,1.6138,1.6087,1.609,1.6092,1.6094,1.6248,1.625,0,0,0,0,0,0,1.5925,1.5934,1.6014,1.6017,1.5958,1.5992,1.5997,1.6018,1.6044,1.6046,1.602,1.6017,1.6066,1.6071,1.6077,1.6145,1.6091,1.6094,1.6096,1.6246,1.6248,1.625,0,0,0,0,0,0,1.5923,1.5932,1.6012,1.5975,1.5985,1.5996,1.6019,1.602,1.6033,1.6048,1.605,1.6032,1.6064,1.6072,1.6119,1.6147,1.6096,1.6099,1.6244,1.6247,1.6249,1.6283,0,0,0,0,0,0,1.592,1.5932,1.5954,1.5975,1.5987,1.6053,1.602,1.6022,1.604,1.6037,1.606,1.6063,1.6064,1.6114,1.6123,1.6151,1.6102,1.6241,1.6245,1.6248,1.6279,1.6286,1.6292,0,0,0,0,0,1.5916,1.5962,1.5955,1.5965,1.6014,1.6055,1.6061,1.6062,1.6042,1.6064,1.6074,1.6062,1.6142,1.6119,1.6129,1.6158,1.6239,1.6244,1.6248,1.6276,1.6285,1.6292,0,0,0,0,0,0,1.5943,1.5964,1.5957,1.6011,1.6032,1.6051,1.6079,1.6071,1.6097,1.6093,1.6093,1.6098,1.6146,1.6157,1.613,1.6215,1.6188,1.6194,1.6206,1.6214,1.6221,1.6217,1.6105,0,0,0,0,0,1.5955,1.5986,1.6003,1.6049,1.606,1.6068,1.6086,1.6084,1.6105,1.6113,1.6126,1.6147,1.6176,1.6196,1.6225,1.6281,1.6285,1.6306,1.6313,1.6318,1.6323,1.6353,1.6362,1.6265,1.6265,1.6264,0,0,1.5981,1.5996,1.6016,1.6055,1.6071,1.6102,1.6075,1.611,1.6134,1.6119,1.6163,1.6174,1.6197,1.6248,1.6272,1.6259,1.6351,1.6324,1.6328,1.633,1.6358,1.6367,1.6376,1.6268,1.6267,1.6267,0,0,1.6043,1.6059,1.6098,1.6114,1.6138,1.6143,1.6152,1.6173,1.6179,1.6224,1.6213,1.6241,1.6293,1.631,1.6325,1.6393,1.6383,1.6403,1.6437,1.6466,1.6474,1.648,1.6504,1.6512,1.6408,1.6408,1.6408,0,1.6072,1.612,1.612,1.6156,1.6173,1.616,1.62,1.6215,1.6247,1.6259,1.6244,1.6308,1.6323,1.6378,1.6394,1.6408,1.6418,1.64,1.6473,1.6479,1.6486,1.6508,1.6517,1.6411,1.641,1.641,1.641,0,1.6153,1.6187,1.6216,1.6246,1.6267,1.6305,1.631,1.6331,1.6328,1.6334,1.638,1.6397,1.6428,1.6441,1.6439,1.6496,1.6487,1.6472,1.6445,1.6497,1.6518,1.6527,1.6414,1.6413,1.6412,1.6412,0,0,1.6234,1.6264,1.6274,1.6288,1.6313,1.6338,1.6375,1.6405,1.6423,1.6445,1.6476,1.652,1.6506,1.6524,1.6523,1.6548,1.66,1.6531,1.6531,1.6542,1.6663,1.6672,1.6682,1.6594,1.6596,1.6597,1.666,0,1.6297,1.6362,1.6363,1.6422,1.6452,1.6441,1.6473,1.6491,1.6499,1.6525,1.6533,1.6564,1.6545,1.6555,1.6579,1.6589,1.6624,1.6584,1.6621,1.6623,1.6615,1.6693,1.6704,1.6762,1.6668,1.667,1.6671,0,1.638,1.6404,1.6467,1.6486,1.6499,1.6528,1.6555,1.6581,1.6602,1.6605,1.6625,1.662,1.6657,1.663,1.668,1.6653,1.6669,1.6676,1.6678,1.668,1.6649,1.6697,1.6781,1.679,1.6684,1.6683,1.6682,0,1.6431,1.648,1.6523,1.6535,1.6559,1.658,1.6591,1.661,1.6628,1.6652,1.6663,1.6692,1.6707,1.6729,1.6732,1.6712,1.6783,1.6756,1.6786,1.6786,1.68,1.6799,1.6888,1.6813,1.6813,1.6812,1.6812,0,1.6501,1.6539,1.6546,1.6572,1.6614,1.6615,1.6657,1.6666,1.6683,1.6711,1.6704,1.673,1.6733,1.676,1.6762,1.6803,1.6811,1.6814,1.6814,1.6814,1.6813,1.6823,1.6819,1.6815,1.6814,1.6814,1.6813,0,1.6564,1.657,1.6616,1.6636,1.6642,1.6672,1.6688,1.6714,1.672,1.6755,1.6764,1.6774,1.6805,1.681,1.6848,1.6849,1.6898,1.6895,1.6891,1.689,1.6919,1.6916,1.7016,1.7028,1.6947,1.6947,1.6948,0,1.6607,1.6636,1.6659,1.6677,1.6689,1.6719,1.6737,1.6739,1.6758,1.6784,1.6805,1.6836,1.686,1.6911,1.6922,1.695,1.6946,1.6979,1.695,1.6949,1.6945,1.6943,1.6945,1.6984,1.6985,1.6986,1.6987,0,1.6684,1.6685,1.6712,1.6739,1.6761,1.6783,1.6804,1.6819,1.6823,1.6845,1.6877,1.6896,1.6934,1.6964,1.6992,1.7003,1.6995,1.6996,1.7004,1.7003,1.6999,1.7001,1.6904,1.6993,1.6993,1.6992,1.6992,1.6991,1.6737,1.6762,1.6782,1.6812,1.6827,1.6847,1.6871,1.688,1.6907,1.6937,1.6937,1.6972,1.6991,1.7028,1.7041,1.7068,1.7058,1.707,1.7073,1.7075,1.7077,1.6996,1.7074,1.7073,1.7073,1.7073,1.7073,0,1.6812,1.6824,1.6851,1.688,1.6903,1.6895,1.6917,1.6937,1.6967,1.6986,1.701,1.7047,1.7076,1.7089,1.7117,1.7136,1.7133,1.7144,1.7142,1.7144,1.7086,1.7075,1.7145,1.7145,1.7145,1.7145,1.7145,1.7145,1.6853,1.6895,1.6899,1.6947,1.6959,1.6993,1.7006,1.7024,1.7039,1.708,1.7104,1.7112,1.7128,1.7158,1.7184,1.7187,1.7198,1.7209,1.7211,1.7156,1.7148,1.7141,1.7131,1.7212,1.7212,1.7266,1.7267,1.7267]},{"header":{"parameterUnit":"m.s-1","parameterCategory":1,"la1":30.2991,"la2":30.254,"lo1":-89.0895,"lo2":-89.0444,"dy":0.0017,"dx":0.0017,"nx":28,"ny":28,"refTime":"2025-05-24T21:00:00:Z","depth":0,"parameterNumber":3,"parameterNumberName":"V-component_of_WINDS"},"data":[0,0,0,0,0,0,0,0,0,0,0,0,0,0,0,0,0,0,0,0,0,0,0,0,0,0,0,0,0,0,0,0,0,0,0,0,0,0,0,0,0,0,0,0,0,0,0,0,0,0,0,0,0,0,0,0,0,0,1.8514,1.8515,0,1.8592,1.8593,1.8594,1.8601,1.86,1.8599,1.8599,1.8679,1.8682,1.8685,0,0,0,0,0,0,0,0,0,0,0,0,0,1.837,1.8372,1.8514,1.8515,1.8516,1.8592,1.8593,1.8594,1.8601,1.86,1.8599,1.8598,1.8678,1.8681,1.8685,0,0,0,0,0,0,0,0,0,0,0,0,0,1.8439,1.8373,1.8514,1.8529,1.8531,1.8592,1.8593,1.8595,1.8602,1.86,1.8599,1.8598,1.8677,1.8681,1.8685,1.8737,0,0,1.8699,1.8701,0,0,0,0,0,0,0,0,1.8435,1.8444,1.8525,1.8528,1.853,1.8586,1.8572,1.8643,1.8602,1.8575,1.8599,1.8597,1.8649,1.8655,1.8673,1.8741,1.8745,1.8699,1.8702,1.8704,1.8705,0,0,0,0,0,0,0,1.843,1.8441,1.8545,1.8527,1.8529,1.8531,1.854,1.8585,1.8618,1.8577,1.8578,1.8587,1.865,1.8669,1.8675,1.8746,1.8699,1.8703,1.8706,1.8707,1.8861,1.8862,0,0,0,0,0,0,1.8423,1.8437,1.8543,1.8547,1.8478,1.8535,1.8544,1.8569,1.8617,1.8623,1.8588,1.8587,1.8662,1.867,1.8678,1.8742,1.8704,1.8708,1.871,1.8859,1.8861,1.8863,0,0,0,0,0,0,1.8419,1.8432,1.8539,1.8492,1.8506,1.8539,1.8567,1.8571,1.859,1.8626,1.8631,1.8601,1.8661,1.8672,1.8723,1.8745,1.871,1.8714,1.8858,1.886,1.8862,1.8871,0,0,0,0,0,0,1.8415,1.8431,1.8451,1.8493,1.8509,1.8583,1.8568,1.8574,1.8598,1.8597,1.864,1.8645,1.8661,1.8716,1.8727,1.875,1.8717,1.8856,1.8859,1.8861,1.8869,1.8874,1.8877,0,0,0,0,0,1.841,1.845,1.8452,1.8465,1.8535,1.8584,1.8593,1.8611,1.8599,1.862,1.8643,1.8644,1.8741,1.8721,1.8734,1.8759,1.8855,1.8858,1.8861,1.8867,1.8873,1.8877,0,0,0,0,0,0,1.8411,1.8456,1.8458,1.8513,1.8545,1.8585,1.8612,1.8616,1.8651,1.8649,1.8669,1.8678,1.8729,1.8749,1.8726,1.8812,1.8796,1.8802,1.8797,1.8802,1.8806,1.8801,1.8721,0,0,0,0,0,1.8417,1.8454,1.8491,1.8536,1.8552,1.8579,1.8602,1.8612,1.8646,1.8659,1.8685,1.8718,1.8755,1.878,1.8817,1.8872,1.8881,1.8895,1.8899,1.8902,1.8908,1.8938,1.8945,1.8874,1.8874,1.8873,0,0,1.8431,1.846,1.8482,1.8537,1.8563,1.86,1.859,1.8631,1.8659,1.8665,1.8715,1.8735,1.8773,1.8826,1.8851,1.8845,1.8929,1.8907,1.8909,1.8912,1.8943,1.8949,1.8955,1.8876,1.8875,1.8875,0,0,1.8475,1.8501,1.8542,1.8567,1.8606,1.8624,1.8634,1.8674,1.8688,1.8738,1.8744,1.8777,1.8842,1.8868,1.889,1.8944,1.8947,1.8956,1.8977,1.9007,1.9013,1.9018,1.9038,1.9044,1.896,1.896,1.896,0,1.8488,1.8545,1.8562,1.8602,1.8626,1.8633,1.8674,1.8699,1.8748,1.8764,1.8756,1.8837,1.8863,1.8923,1.8936,1.8953,1.8965,1.8951,1.9011,1.9016,1.9021,1.904,1.9047,1.8961,1.8961,1.8961,1.8961,0,1.8558,1.8597,1.8625,1.8672,1.87,1.874,1.8763,1.8789,1.8797,1.8815,1.8866,1.8897,1.894,1.8955,1.8963,1.9016,1.9011,1.9006,1.8992,1.9028,1.9047,1.9054,1.8962,1.8962,1.8962,1.8962,0,0,1.8606,1.8662,1.8672,1.8693,1.8736,1.8767,1.8808,1.885,1.8872,1.8905,1.894,1.8994,1.899,1.9015,1.9026,1.9052,1.9093,1.9044,1.9045,1.9053,1.9154,1.9158,1.9166,1.9095,1.9096,1.9098,1.9151,0,1.8655,1.8728,1.8745,1.8807,1.8844,1.8851,1.8886,1.8917,1.8935,1.8969,1.8989,1.9027,1.9019,1.9034,1.906,1.9083,1.9114,1.9079,1.9128,1.9129,1.9119,1.9175,1.9179,1.9228,1.9158,1.9159,1.916,0,1.8724,1.8758,1.8825,1.8863,1.8879,1.8911,1.8951,1.8983,1.9017,1.9029,1.9056,1.9065,1.9107,1.909,1.9149,1.9125,1.9145,1.9159,1.9162,1.9167,1.9147,1.9183,1.9244,1.9252,1.9172,1.9171,1.917,0,1.8752,1.8816,1.8864,1.8882,1.8928,1.895,1.897,1.9003,1.9028,1.9062,1.9079,1.9118,1.9139,1.917,1.9188,1.9174,1.9246,1.923,1.9257,1.9256,1.9272,1.9271,1.9338,1.9284,1.9284,1.9284,1.9284,0,1.8806,1.8847,1.8877,1.8907,1.8952,1.897,1.9015,1.9035,1.9064,1.9098,1.9106,1.9138,1.916,1.9195,1.921,1.9256,1.9266,1.9276,1.928,1.9276,1.9275,1.929,1.9288,1.9286,1.9286,1.9285,1.9285,0,1.8846,1.8868,1.8921,1.896,1.8971,1.9003,1.9036,1.9065,1.9084,1.9126,1.9137,1.9166,1.9207,1.9228,1.9279,1.9289,1.9342,1.9343,1.933,1.9332,1.9358,1.9355,1.9438,1.945,1.9387,1.9388,1.9388,0,1.888,1.8911,1.8954,1.8977,1.8997,1.9034,1.9059,1.9078,1.9104,1.9146,1.917,1.9211,1.9245,1.931,1.9336,1.9375,1.9377,1.9404,1.9383,1.9378,1.9378,1.9377,1.938,1.9407,1.9408,1.9408,1.9409,0,1.8937,1.8947,1.8982,1.9021,1.9051,1.9083,1.9114,1.9133,1.9157,1.9185,1.9227,1.9254,1.9306,1.9347,1.9388,1.9409,1.9413,1.9415,1.9423,1.942,1.9411,1.9417,1.9341,1.9413,1.9413,1.9412,1.9412,1.9412,1.8976,1.9004,1.9038,1.9077,1.9103,1.9132,1.9161,1.9183,1.9219,1.9263,1.9272,1.9316,1.935,1.9405,1.9427,1.9462,1.9457,1.9469,1.9472,1.9475,1.9476,1.9405,1.947,1.947,1.9469,1.9469,1.9469,0,1.9034,1.9056,1.9092,1.9136,1.9167,1.9168,1.9203,1.9228,1.9268,1.9299,1.9332,1.938,1.942,1.9448,1.9489,1.9512,1.9515,1.9522,1.952,1.9525,1.9479,1.9468,1.9518,1.9518,1.9518,1.9518,1.9518,1.9518,1.9068,1.9115,1.9129,1.9189,1.9211,1.9255,1.9275,1.9302,1.9327,1.938,1.9413,1.9432,1.9462,1.9504,1.9541,1.9548,1.9563,1.957,1.9577,1.9534,1.9528,1.9523,1.9513,1.9573,1.9573,1.9621,1.9622,1.9622]}]]